This demonstration page uses our WeatherBlox Daily Observations layout. Learn more.

Left ArrowRight Arrow

40.92501, -98.34201

Hourly Observations for August 15, 2022

Temp ( °F °C ) Dew Point ( °F °C ) Humidity (%) Winds ( mph kmh ) Pressure ( in mb ) Visibility ( mi km ) Precip ( " mm )
12:53 am 00:53 Partly Cloudy 72 22.2 63 17.2 73 73 E 9 15 29.95 1014 10 16 0.01 0.13
1:53 am 01:53 Partly Cloudy 72 22.2 63 17.2 73 73 E 9 15 29.94 1014 10 16 0.00 0.00
2:53 am 02:53 Clear 72 22.2 62 16.7 71 71 ESE 12 19 29.94 1014 10 16 0.00 0.00
3:53 am 03:53 Clear 72 22.2 62 16.7 71 71 SE 15 24 29.91 1013 10 16 0.00 0.00
4:27 am 04:27 Partly Cloudy with Nearby Thunderstorms 72 22.2 62 16.7 71 71 ESE 10 17 29.90 1012 10 16 0.00 0.00
4:42 am 04:42 Mostly Cloudy 72 22.2 62 16.7 71 71 E 13 20 29.90 1012 10 16 0.00 0.00
4:53 am 04:53 Mostly Cloudy with Light Rain 71 21.7 63 17.2 76 76 E 13 20 29.92 1013 10 16 0.01 0.13
5:12 am 05:12 Mostly Cloudy with Thunderstorms 71 21.7 63 17.2 76 76 ESE 8 13 29.91 1013 10 16 0.01 0.13
5:27 am 05:27 Cloudy with Rain 70 21.1 64 17.8 81 81 E 14 22 29.90 1013 8 13 0.01 0.25
5:53 am 05:53 Mostly Cloudy 68 20 64 17.8 87 87 E 9 15 29.93 1014 10 16 0.03 0.76
6:53 am 06:53 Mostly Cloudy 66 18.9 64 17.8 93 93 NNE 6 9 29.96 1014 10 16 0.00 0.00
7:53 am 07:53 Mostly Sunny 66 18.9 64 17.8 93 93 N 9 15 29.97 1015 10 16 0.00 0.00
8:53 am 08:53 Mostly Cloudy 67 19.4 64 17.8 90 90 E 7 11 29.96 1015 10 16 0.00 0.00
9:14 am 09:14 Mostly Cloudy 68 20 64 17.8 87 87 E 7 11 29.94 1014 10 16 0.00 0.00
9:53 am 09:53 Cloudy with Light Rain 68 20 64 17.8 87 87 E 9 15 29.96 1015 9 14 0.01 0.13
10:06 am 10:06 Cloudy 68 20 64 17.8 87 87 E 9 15 29.93 1014 10 16 0.01 0.25
10:53 am 10:53 Cloudy 68 20 65 18.3 90 90 ESE 13 20 29.96 1015 9 14 0.01 0.25
11:53 am 11:53 Cloudy 69 20.6 65 18.3 87 87 Calm 29.98 1015 9 14 0.01 0.13
12:51 pm 12:51 Cloudy 70 21 66 19 88 88 ESE 6 9 29.93 1013 9 14 0.01 0.25
12:53 pm 12:53 Cloudy 70 21.1 66 18.9 87 87 ESE 6 9 29.97 1015 9 14 0.01 0.25
1:53 pm 13:53 Cloudy 71 21.7 66 18.9 84 84 ESE 5 7 29.96 1015 10 16 0.00 0.00
2:13 pm 14:13 Cloudy 71 21.7 67 19.4 87 87 ENE 3 6 29.93 1014 10 16 0.00 0.00
2:53 pm 14:53 Cloudy 72 22.2 67 19.4 84 84 NE 7 11 29.97 1015 10 16 0.00 0.00
3:53 pm 15:53 Cloudy 71 21.7 67 19.4 87 87 NE 10 17 29.96 1015 8 13 0.01 0.13
4:53 pm 16:53 Cloudy 72 22.2 67 19.4 84 84 NE 13 20 29.96 1015 9 14 0.00 0.00
5:53 pm 17:53 Cloudy 71 21.7 65 18.3 81 81 ENE 15 24 29.96 1015 10 16 0.00 0.00
6:53 pm 18:53 Cloudy 70 21.1 64 17.8 81 81 ENE 14 22 29.97 1015 10 16 0.00 0.00
7:53 pm 19:53 Cloudy 68 20 63 17.2 84 84 ENE 18 30 30.00 1016 8 13 0.00 0.00
8:40 pm 20:40 Cloudy 67 19.4 62 16.7 84 84 E 14 22 29.97 1015 10 16 0.00 0.00
8:53 pm 20:53 Cloudy 67 19.4 62 16.7 84 84 E 16 26 30.01 1016 10 16 0.00 0.00
9:53 pm 21:53 Cloudy 67 19.4 61 16.1 81 81 E 10 17 30.01 1016 10 16 0.00 0.00
10:48 pm 22:48 Cloudy 66 19 61 16 83 83 E 16 26 30.00 1016 10 16 0.00 0.00
10:53 pm 22:53 Cloudy 66 18.9 60 15.6 81 81 E 15 24 30.03 1017 10 16 0.00 0.00
11:19 pm 23:19 Cloudy 65 18.3 60 15.6 84 84 E 16 26 29.99 1016 10 16 0.00 0.00
11:53 pm 23:53 Cloudy 65 18.3 60 15.6 84 84 ENE 12 19 30.04 1017 10 16 0.00 0.00

Powered by AerisWeather